Mineola, TX

6:12 PM CDT on July 21, 2017 (GMT -0500)
Mineola

Weather History for KJDD - February, 2014

Change the Weather History Date:

Wednesday, February 26, 2014

  Actual Average (KTYR) Record (KTYR)
Temperature  
Mean Temperature 37 °F -  
Max Temperature 42 °F 59 °F 87 °F (1986)
Min Temperature 30 °F 41 °F 18 °F (1960)
Degree Days  
Heating Degree Days 28    
Moisture  
Dew Point 25 °F    
Average Humidity 62    
Maximum Humidity 93    
Minimum Humidity 36    
Precipitation  
Precipitation 0.04 in - - ()
Sea Level Pressure  
Sea Level Pressure 30.20 in    
Wind  
Wind Speed 9 mph (NNW)    
Max Wind Speed 16 mph    
Max Gust Speed 23 mph    
Visibility 9 miles    
Events Rain    
Averages and records for this station are not official NWS values.
T = Trace of Precipitation, MM = Missing Value Source: NWS Daily Summary

Daily Weather History Graph

Daily Weather History Graph

Search for Another Location

Airport or City:

Trip Planner

Search our weather history database for the weather conditions in past years. The results will help you decide how hot, cold, wet, or windy it might be!

Date:

Astronomy

Feb. 26, 2014 Rise Set
Actual Time 6:53 AM CST 6:16 PM CST
Civil Twilight 6:28 AM CST 6:41 PM CST
Nautical Twilight 5:59 AM CST 7:10 PM CST
Astronomical Twilight 5:31 AM CST 7:38 PM CST
Moon 4:33 AM CST (2/26) 3:38 PM CST (2/26)
Length of Visible Light 12h 13m
Length of Day
11h 23m
Waning Crescent, 10% of the Moon is Illuminated
Feb 26
Waning Crescent
Mar 1
New
Mar 8
First Quarter
Mar 16
Full
Mar 23
Last Quarter

Hourly Weather History & Observations

Time (CST) Temp. Windchill Dew Point Humidity Pressure Visibility Wind Dir Wind Speed Gust Speed Precip Events Conditions
12:15 AM 42.8 °F 38.6 °F 39.2 °F 87% 30.11 in 2.5 mi NNE 6.9 mph - 0.03 in   Drizzle
12:35 AM 42.8 °F 38.0 °F 39.2 °F 87% 30.14 in 7.0 mi North 8.1 mph - 0.03 in Rain Rain
12:55 AM 41.0 °F 35.2 °F 39.2 °F 93% 30.16 in 5.0 mi NNW 9.2 mph - 0.04 in Rain Heavy Rain
1:15 AM 41.0 °F 36.4 °F 39.2 °F 93% 30.14 in 8.0 mi North 6.9 mph - N/A   Overcast
1:35 AM 41.0 °F 34.3 °F 39.2 °F 93% 30.15 in 8.0 mi North 11.5 mph 16.1 mph N/A   Overcast
1:55 AM 42.8 °F 37.0 °F 37.4 °F 81% 30.16 in 10.0 mi North 10.4 mph - N/A   Overcast
2:15 AM 41.0 °F 34.7 °F 37.4 °F 87% 30.16 in 7.0 mi North 10.4 mph 17.3 mph N/A   Overcast
2:35 AM 41.0 °F 35.8 °F 35.6 °F 81% 30.17 in 10.0 mi North 8.1 mph 16.1 mph N/A   Overcast
2:55 AM 41.0 °F 34.7 °F 35.6 °F 81% 30.17 in 10.0 mi North 10.4 mph - N/A   Overcast
3:15 AM 41.0 °F 34.7 °F 33.8 °F 76% 30.17 in 10.0 mi North 10.4 mph 16.1 mph N/A   Overcast
3:35 AM 41.0 °F 33.1 °F 33.8 °F 76% 30.17 in 10.0 mi North 15.0 mph 19.6 mph N/A   Overcast
3:55 AM 39.2 °F 32.0 °F 32.0 °F 75% 30.18 in 10.0 mi NNW 11.5 mph 18.4 mph N/A   Overcast
4:15 AM 39.2 °F 31.2 °F 32.0 °F 75% 30.19 in 10.0 mi NNW 13.8 mph 18.4 mph N/A   Overcast
4:35 AM 37.4 °F 28.2 °F 32.0 °F 81% 30.20 in 8.0 mi NNW 16.1 mph 20.7 mph N/A   Overcast
4:55 AM 37.4 °F 29.3 °F 30.2 °F 75% 30.20 in 9.0 mi NNW 12.7 mph 23.0 mph N/A   Overcast
5:15 AM 37.4 °F 29.3 °F 28.4 °F 70% 30.21 in 8.0 mi North 12.7 mph 20.7 mph N/A   Mostly Cloudy
5:35 AM 35.6 °F 26.6 °F 28.4 °F 75% 30.22 in 8.0 mi North 13.8 mph 20.7 mph N/A   Mostly Cloudy
5:55 AM 35.6 °F 26.6 °F 26.6 °F 70% 30.22 in 8.0 mi North 13.8 mph 19.6 mph N/A   Mostly Cloudy
6:15 AM 35.6 °F 28.0 °F 26.6 °F 70% 30.24 in 8.0 mi North 10.4 mph 20.7 mph N/A   Overcast
6:35 AM 35.6 °F 29.2 °F 26.6 °F 70% 30.25 in 8.0 mi North 8.1 mph - N/A   Overcast
6:55 AM 33.8 °F 26.4 °F 26.6 °F 75% 30.25 in 9.0 mi North 9.2 mph 18.4 mph N/A   Overcast
7:15 AM 33.8 °F 25.8 °F 26.6 °F 75% 30.26 in 8.0 mi North 10.4 mph 18.4 mph N/A   Overcast
7:35 AM 33.8 °F 26.4 °F 24.8 °F 70% 30.26 in 8.0 mi NNW 9.2 mph 19.6 mph N/A   Overcast
7:55 AM 33.8 °F 25.8 °F 24.8 °F 70% 30.27 in 7.0 mi North 10.4 mph 18.4 mph N/A   Overcast
8:15 AM 33.8 °F 23.9 °F 24.8 °F 70% 30.27 in 8.0 mi NNW 15.0 mph 19.6 mph N/A   Overcast
8:35 AM 33.8 °F 24.8 °F 23.0 °F 65% 30.27 in 8.0 mi North 12.7 mph 17.3 mph N/A   Mostly Cloudy
8:55 AM 35.6 °F 26.2 °F 21.2 °F 56% 30.29 in 9.0 mi North 15.0 mph 20.7 mph N/A   Mostly Cloudy
9:15 AM 35.6 °F 26.6 °F 21.2 °F 56% 30.29 in 8.0 mi North 13.8 mph 21.9 mph N/A   Mostly Cloudy
9:35 AM 35.6 °F 27.1 °F 21.2 °F 56% 30.29 in 8.0 mi North 12.7 mph 17.3 mph N/A   Mostly Cloudy
9:55 AM 35.6 °F 26.2 °F 21.2 °F 56% 30.28 in 9.0 mi NNW 15.0 mph - N/A   Mostly Cloudy
10:15 AM 35.6 °F 27.5 °F 21.2 °F 56% 30.29 in 9.0 mi North 11.5 mph 17.3 mph N/A   Mostly Cloudy
10:35 AM 35.6 °F 27.5 °F 21.2 °F 56% 30.29 in 9.0 mi NNW 11.5 mph 18.4 mph N/A   Mostly Cloudy
10:55 AM 35.6 °F 27.5 °F 19.4 °F 52% 30.28 in 9.0 mi North 11.5 mph - N/A   Scattered Clouds
11:15 AM 35.6 °F 28.6 °F 21.2 °F 56% 30.28 in 9.0 mi North 9.2 mph 17.3 mph N/A   Clear
11:35 AM 35.6 °F 26.2 °F 21.2 °F 56% 30.27 in 8.0 mi NNW 15.0 mph - N/A   Clear
11:55 AM 35.6 °F 28.6 °F 21.2 °F 56% 30.27 in 10.0 mi NNW 9.2 mph - N/A   Clear
12:15 PM 37.4 °F 30.8 °F 21.2 °F 52% 30.25 in 9.0 mi North 9.2 mph - N/A   Clear
12:35 PM 39.2 °F 33.0 °F 21.2 °F 49% 30.24 in 10.0 mi NNW 9.2 mph - N/A   Clear
12:55 PM 39.2 °F 33.6 °F 23.0 °F 52% 30.23 in 9.0 mi North 8.1 mph - N/A   Clear
1:15 PM 39.2 °F 33.6 °F 21.2 °F 49% 30.22 in 9.0 mi NNW 8.1 mph 16.1 mph N/A   Clear
1:35 PM 41.0 °F 35.2 °F 21.2 °F 45% 30.20 in 9.0 mi West 9.2 mph - N/A   Clear
1:55 PM 41.0 °F 36.4 °F 21.2 °F 45% 30.19 in 9.0 mi NNW 6.9 mph - N/A   Clear
2:15 PM 42.8 °F 37.5 °F 23.0 °F 46% 30.18 in 9.0 mi NNW 9.2 mph - N/A   Clear
2:35 PM 42.8 °F 37.0 °F 23.0 °F 46% 30.18 in 9.0 mi NW 10.4 mph - N/A   Clear
2:55 PM 42.8 °F 37.5 °F 21.2 °F 42% 30.17 in 9.0 mi NW 9.2 mph - N/A   Partly Cloudy
3:15 PM 41.0 °F 32.8 °F 19.4 °F 42% 30.17 in 10.0 mi NNW 16.1 mph - N/A   Clear
3:35 PM 41.0 °F 34.3 °F 19.4 °F 42% 30.17 in 10.0 mi NW 11.5 mph - N/A   Clear
3:55 PM 41.0 °F 34.7 °F 19.4 °F 42% 30.17 in 10.0 mi NW 10.4 mph - N/A   Clear
4:15 PM 42.8 °F 36.2 °F 19.4 °F 39% 30.17 in 10.0 mi North 12.7 mph - N/A   Clear
4:35 PM 42.8 °F 37.5 °F 19.4 °F 39% 30.16 in 10.0 mi NNW 9.2 mph - N/A   Clear
4:55 PM 42.8 °F 36.6 °F 17.6 °F 36% 30.16 in 10.0 mi NW 11.5 mph - N/A   Clear
5:15 PM 42.8 °F 36.2 °F 19.4 °F 39% 30.15 in 10.0 mi NNW 12.7 mph - N/A   Clear
5:35 PM 42.8 °F 38.6 °F 19.4 °F 39% 30.15 in 10.0 mi NNW 6.9 mph - N/A   Clear
5:55 PM 42.8 °F 38.0 °F 19.4 °F 39% 30.15 in 10.0 mi NNW 8.1 mph - N/A   Clear
6:15 PM 39.2 °F 34.2 °F 19.4 °F 45% 30.16 in 10.0 mi NNW 6.9 mph - N/A   Clear
6:35 PM 39.2 °F 35.9 °F 19.4 °F 45% 30.16 in 10.0 mi NNW 4.6 mph - N/A   Clear
6:55 PM 37.4 °F 32.8 °F 19.4 °F 48% 30.16 in 10.0 mi NW 5.8 mph - N/A   Clear
7:15 PM 37.4 °F 33.8 °F 21.2 °F 52% 30.16 in 10.0 mi NW 4.6 mph - N/A   Clear
7:35 PM 37.4 °F 32.8 °F 19.4 °F 48% 30.16 in 10.0 mi NW 5.8 mph - N/A   Clear
7:55 PM 35.6 °F 30.7 °F 21.2 °F 56% 30.17 in 10.0 mi NW 5.8 mph - N/A   Clear
8:15 PM 35.6 °F 32.8 °F 21.2 °F 56% 30.17 in 10.0 mi NW 3.5 mph - N/A   Clear
8:35 PM 35.6 °F 32.8 °F 21.2 °F 56% 30.17 in 10.0 mi WNW 3.5 mph - N/A   Clear
8:55 PM 35.6 °F 32.8 °F 23.0 °F 60% 30.18 in 10.0 mi WNW 3.5 mph - N/A   Clear
9:15 PM 35.6 °F - 23.0 °F 60% 30.18 in 10.0 mi Calm Calm - N/A   Clear
9:35 PM 33.8 °F 30.8 °F 23.0 °F 65% 30.19 in 10.0 mi NW 3.5 mph - N/A   Clear
9:55 PM 33.8 °F - 23.0 °F 65% 30.19 in 10.0 mi Calm Calm - N/A   Clear
10:15 PM 33.8 °F - 21.2 °F 60% 30.19 in 10.0 mi Calm Calm - N/A   Clear
10:35 PM 32.0 °F - 23.0 °F 69% 30.19 in 10.0 mi Calm Calm - N/A   Clear
10:55 PM 32.0 °F - 21.2 °F 64% 30.19 in 10.0 mi Calm Calm - N/A   Clear
11:15 PM 32.0 °F - 23.0 °F 69% 30.18 in 10.0 mi Calm Calm - N/A   Clear
11:35 PM 32.0 °F - 24.8 °F 75% 30.19 in 10.0 mi Calm Calm - N/A   Clear
11:55 PM 30.2 °F - 24.8 °F 80% 30.19 in 10.0 mi Calm Calm - N/A   Clear